Location: ?????
(44.4284°N, 135.2222°E)
Time: 06:59:02
(UTC+00:00)

Cosmos 2227 Rocket - Pass Details

Date: 19 May 2025
Orbit: 837 x 844 km, 71.0° (Epoch: 15 June)

Event Time Altitude Azimuth Distance (km) Brightness Sun altitude
Exits shadow 18:03:10 17° 216° (SW) 1,982 3.5 -12.7°
Maximum altitude 18:07:30 70° 297° (WNW) 893 2.3 -12.2°
Drops below altitude 10° 18:13:09 10° 21° (NNE) 2,463 5.7 -11.4°
Sets 18:15:37 0° 24° (NNE) 3,403 6.7 -11.1°
